RWASAT-1 (44790 NORAD) Tracking and Keplerian Element Data

This shows tracking and keplerian element data for the satellite.

Feedback or suggestion? Click here.




ElementValue
Catalog44790
NameRWASAT-1
Epoch Orbit913
Epoch Day18.17403122
Epoch Year2020
RAAN15.1727
Inclination51.6457
Eccentricity0.0008855
Argument of Perigee168.7408
Mean Anonmoly273.591
Mean Motion15.51256801
Decay Rate-4.69E-06
L11 44790U 98067QV 20018.17403122 -.00000469 00000-0 00000+0 0 9994
L22 44790 51.6457 15.1727 0008855 168.7408 273.5910 15.51256801 9131

Live tracking and technical data element details for RWASAT-1 (NORAD 44790). RWASAT-1 can be tracked NOW for your location showing map with azimuth and elevation plus other details from your city location.

Track the satellite on the map from your city or location and see movement details for azimuth, elevation, latitude, longitude, range, height, and movement on the map or in text.







IsCatalogInMostPopularTable: catalog: 44790, numindb: 13
Update: records affected: 1



GetName: 44790 RWASAT-1

Hit Count: updated at: Sat, 18 Jan 2020 17:56:53 GMT